Year,Month,Day,Hour,Minute,Value (Times are PST for temperature in C)
2008,09,22,00,00,10.80
2008,09,22,00,01,10.80
2008,09,22,00,02,10.80
2008,09,22,00,03,10.80
2008,09,22,00,04,10.80
2008,09,22,00,05,10.80
2008,09,22,00,06,10.80
2008,09,22,00,07,10.80
2008,09,22,00,08,10.80
2008,09,22,00,09,10.80
2008,09,22,00,10,10.80
2008,09,22,00,11,10.80
2008,09,22,00,12,10.80
2008,09,22,01,02,10.70
2008,09,22,01,03,10.70
2008,09,22,01,04,10.70
2008,09,22,01,05,10.70
2008,09,22,01,06,10.70
2008,09,22,01,07,10.70
2008,09,22,01,08,10.70
2008,09,22,01,09,10.60
2008,09,22,01,10,10.60
2008,09,22,01,11,10.60
2008,09,22,01,12,10.60
2008,09,22,01,13,10.60
2008,09,22,01,14,10.60
2008,09,22,01,15,10.60
2008,09,22,01,16,10.60
2008,09,22,01,17,10.60
2008,09,22,01,18,10.60
2008,09,22,01,19,10.60
2008,09,22,01,20,10.60
2008,09,22,01,21,10.60
2008,09,22,01,22,10.60
2008,09,22,01,23,10.60
2008,09,22,01,24,10.60
2008,09,22,01,25,10.60
2008,09,22,01,26,10.60
2008,09,22,01,27,10.60
2008,09,22,01,28,10.60
2008,09,22,01,29,10.60
2008,09,22,01,30,10.60
2008,09,22,01,31,10.60
2008,09,22,01,32,10.60
2008,09,22,01,33,10.60
2008,09,22,01,34,10.60
2008,09,22,01,35,10.60
2008,09,22,01,36,10.60
2008,09,22,01,37,10.50
2008,09,22,01,38,10.50
2008,09,22,01,39,10.50
2008,09,22,01,40,10.50
2008,09,22,01,41,10.50
2008,09,22,01,42,10.50
2008,09,22,01,43,10.50
2008,09,22,01,44,10.50
2008,09,22,01,45,10.50
2008,09,22,01,46,10.50
2008,09,22,01,47,10.50
2008,09,22,01,48,10.50
2008,09,22,01,49,10.50
2008,09,22,01,50,10.50
2008,09,22,01,51,10.50
2008,09,22,01,52,10.50
2008,09,22,01,53,10.50
2008,09,22,01,54,10.50
2008,09,22,01,55,10.50
2008,09,22,01,56,10.50
2008,09,22,01,57,10.50
2008,09,22,01,58,10.50
2008,09,22,01,59,10.50
2008,09,22,02,00,10.50
2008,09,22,02,01,10.50
2008,09,22,02,02,10.50
2008,09,22,02,03,10.50
2008,09,22,02,04,10.50
2008,09,22,02,05,10.50
2008,09,22,02,06,10.50
2008,09,22,02,07,10.50
2008,09,22,02,08,10.50
2008,09,22,02,09,10.50
2008,09,22,02,10,10.50
2008,09,22,02,11,10.50
2008,09,22,02,12,10.50
2008,09,22,02,13,10.50
2008,09,22,02,14,10.50
2008,09,22,02,15,10.50
2008,09,22,02,16,10.50
2008,09,22,02,17,10.50
2008,09,22,02,18,10.50
2008,09,22,02,19,10.50
2008,09,22,02,20,10.50
2008,09,22,02,21,10.50
2008,09,22,02,22,10.50
2008,09,22,02,23,10.50
2008,09,22,02,24,10.50
2008,09,22,02,25,10.50
2008,09,22,02,26,10.50
2008,09,22,02,27,10.50
2008,09,22,02,28,10.50
2008,09,22,02,29,10.50
2008,09,22,02,30,10.50
2008,09,22,02,31,10.50
2008,09,22,02,32,10.50
2008,09,22,02,33,10.50
2008,09,22,02,34,10.50
2008,09,22,02,35,10.50
2008,09,22,02,36,10.50
2008,09,22,02,37,10.50
2008,09,22,02,38,10.50
2008,09,22,02,39,10.60
2008,09,22,02,40,10.60
2008,09,22,02,41,10.60
2008,09,22,02,42,10.60
2008,09,22,02,43,10.60
2008,09,22,02,44,10.60
2008,09,22,02,45,10.60
2008,09,22,02,46,10.60
2008,09,22,02,47,10.60
2008,09,22,02,48,10.60
2008,09,22,02,49,10.60
2008,09,22,02,50,10.60
2008,09,22,02,51,10.60
2008,09,22,02,52,10.60
2008,09,22,02,53,10.60
2008,09,22,02,54,10.60
2008,09,22,02,55,10.60
2008,09,22,02,56,10.60
2008,09,22,02,57,10.60
2008,09,22,02,58,10.60
2008,09,22,02,59,10.60
2008,09,22,03,00,10.60
2008,09,22,03,01,10.60
2008,09,22,03,02,10.60
2008,09,22,03,03,10.50
2008,09,22,03,04,10.50
2008,09,22,03,05,10.50
2008,09,22,03,06,10.50
2008,09,22,03,07,10.50
2008,09,22,03,08,10.50
2008,09,22,03,09,10.50
2008,09,22,03,10,10.50
2008,09,22,03,11,10.50
2008,09,22,03,12,10.50
2008,09,22,03,13,10.50
2008,09,22,03,14,10.50
2008,09,22,03,15,10.50
2008,09,22,03,16,10.40
2008,09,22,03,17,10.40
2008,09,22,03,18,10.50
2008,09,22,03,19,10.50
2008,09,22,03,20,10.40
2008,09,22,03,21,10.40
2008,09,22,03,22,10.40
2008,09,22,03,23,10.40
2008,09,22,03,24,10.40
2008,09,22,03,25,10.40
2008,09,22,03,26,10.40
2008,09,22,03,27,10.40
2008,09,22,03,28,10.40
2008,09,22,03,29,10.40
2008,09,22,03,30,10.40
2008,09,22,03,31,10.40
2008,09,22,03,32,10.40
2008,09,22,03,33,10.40
2008,09,22,03,34,10.40
2008,09,22,03,35,10.40
2008,09,22,03,36,10.40
2008,09,22,03,37,10.40
2008,09,22,03,38,10.40
2008,09,22,03,39,10.40
2008,09,22,03,40,10.40
2008,09,22,03,41,10.40
2008,09,22,03,42,10.40
2008,09,22,03,43,10.40
2008,09,22,03,44,10.40
2008,09,22,03,45,10.40
2008,09,22,03,46,10.40
2008,09,22,03,47,10.40
2008,09,22,03,48,10.40
2008,09,22,03,49,10.40
2008,09,22,03,50,10.40
2008,09,22,03,51,10.40
2008,09,22,03,52,10.40
2008,09,22,03,53,10.40
2008,09,22,03,54,10.40
2008,09,22,03,55,10.40
2008,09,22,03,56,10.40
2008,09,22,03,57,10.40
2008,09,22,03,58,10.40
2008,09,22,03,59,10.40
2008,09,22,04,00,10.40
2008,09,22,04,01,10.40
2008,09,22,04,02,10.40
2008,09,22,04,03,10.40
2008,09,22,04,04,10.30
2008,09,22,04,05,10.30
2008,09,22,04,06,10.30
2008,09,22,04,07,10.30
2008,09,22,04,08,10.30
2008,09,22,04,09,10.30
2008,09,22,04,10,10.30
2008,09,22,04,11,10.30
2008,09,22,04,12,10.30
2008,09,22,04,13,10.30
2008,09,22,04,14,10.30
2008,09,22,04,15,10.30
2008,09,22,04,16,10.30
2008,09,22,04,17,10.30
2008,09,22,04,18,10.30
2008,09,22,04,19,10.30
2008,09,22,04,20,10.30
2008,09,22,04,21,10.20
2008,09,22,04,22,10.20
2008,09,22,04,23,10.20
2008,09,22,04,24,10.20
2008,09,22,04,25,10.20
2008,09,22,04,26,10.20
2008,09,22,04,27,10.20
2008,09,22,04,28,10.20
2008,09,22,04,29,10.20
2008,09,22,04,30,10.20
2008,09,22,04,31,10.20
2008,09,22,04,32,10.20
2008,09,22,04,33,10.20
2008,09,22,04,34,10.20
2008,09,22,04,35,10.20
2008,09,22,04,36,10.20
2008,09,22,04,37,10.20
2008,09,22,04,38,10.10
2008,09,22,04,39,10.10
2008,09,22,04,40,10.10
2008,09,22,04,41,10.10
2008,09,22,04,42,10.10
2008,09,22,04,43,10.10
2008,09,22,04,44,10.10
2008,09,22,04,45,10.10
2008,09,22,04,46,10.10
2008,09,22,04,47,10.10
2008,09,22,04,48,10.00
2008,09,22,04,49,10.00
2008,09,22,04,50,10.00
2008,09,22,04,51,10.00
2008,09,22,04,52,9.90
2008,09,22,04,53,9.90
2008,09,22,04,54,9.90
2008,09,22,04,55,9.90
2008,09,22,04,56,9.90
2008,09,22,04,57,9.90
2008,09,22,04,58,9.80
2008,09,22,04,59,9.80
2008,09,22,05,00,9.80
2008,09,22,05,01,9.80
2008,09,22,05,02,9.80
2008,09,22,05,03,9.80
2008,09,22,05,04,9.80
2008,09,22,05,05,9.80
2008,09,22,05,06,9.80
2008,09,22,05,07,9.80
2008,09,22,05,08,9.70
2008,09,22,05,09,9.70
2008,09,22,05,10,9.70
2008,09,22,05,11,9.70
2008,09,22,05,12,9.70
2008,09,22,05,13,9.70
2008,09,22,05,14,9.70
2008,09,22,05,15,9.70
2008,09,22,05,16,9.60
2008,09,22,05,17,9.60
2008,09,22,05,18,9.60
2008,09,22,05,19,9.60
2008,09,22,05,20,9.60
2008,09,22,05,21,9.60
2008,09,22,05,22,9.60
2008,09,22,05,23,9.60
2008,09,22,05,24,9.60
2008,09,22,05,25,9.60
2008,09,22,05,26,9.60
2008,09,22,05,27,9.60
2008,09,22,05,28,9.60
2008,09,22,05,29,9.50
2008,09,22,05,30,9.50
2008,09,22,05,31,9.50
2008,09,22,05,32,9.50
2008,09,22,05,33,9.50
2008,09,22,05,34,9.50
2008,09,22,05,35,9.50
2008,09,22,05,36,9.60
2008,09,22,05,37,9.60
2008,09,22,05,38,9.60
2008,09,22,05,39,9.60
2008,09,22,05,40,9.60
2008,09,22,05,41,9.60
2008,09,22,05,42,9.60
2008,09,22,05,43,9.60
2008,09,22,05,44,9.60
2008,09,22,05,45,9.60
2008,09,22,05,46,9.50
2008,09,22,05,47,9.50
2008,09,22,05,48,9.50
2008,09,22,05,49,9.50
2008,09,22,05,50,9.50
2008,09,22,05,51,9.40
2008,09,22,05,52,9.50
2008,09,22,05,53,9.50
2008,09,22,05,54,9.40
2008,09,22,05,55,9.40
2008,09,22,05,56,9.40
2008,09,22,05,57,9.40
2008,09,22,05,58,9.40
2008,09,22,05,59,9.40
2008,09,22,06,00,9.40
2008,09,22,06,01,9.40
2008,09,22,06,02,9.40
2008,09,22,06,03,9.40
2008,09,22,06,04,9.40
2008,09,22,06,05,9.40
2008,09,22,06,06,9.30
2008,09,22,06,07,9.30
2008,09,22,06,08,9.30
2008,09,22,06,09,9.30
2008,09,22,06,10,9.30
2008,09,22,06,11,9.30
2008,09,22,06,12,9.30
2008,09,22,06,13,9.40
2008,09,22,06,14,9.40
2008,09,22,06,15,9.40
2008,09,22,06,16,9.40
2008,09,22,06,17,9.40
2008,09,22,06,18,9.40
2008,09,22,06,19,9.40
2008,09,22,06,20,9.40
2008,09,22,06,21,9.40
2008,09,22,06,22,9.50
2008,09,22,06,23,9.50
2008,09,22,06,24,9.50
2008,09,22,06,25,9.40
2008,09,22,06,26,9.50
2008,09,22,06,27,9.40
2008,09,22,06,28,9.40
2008,09,22,06,29,9.40
2008,09,22,06,30,9.40
2008,09,22,06,31,9.30
2008,09,22,06,32,9.30
2008,09,22,06,33,9.30
2008,09,22,06,34,9.30
2008,09,22,06,35,9.30
2008,09,22,06,36,9.20
2008,09,22,06,37,9.20
2008,09,22,06,38,9.10
2008,09,22,06,39,9.10
2008,09,22,06,40,9.10
2008,09,22,06,41,9.10
2008,09,22,06,42,9.10
2008,09,22,06,43,9.00
2008,09,22,06,44,9.00
2008,09,22,06,45,9.00
2008,09,22,06,46,9.00
2008,09,22,06,47,9.00
2008,09,22,06,48,9.00
2008,09,22,06,49,9.00
2008,09,22,06,50,8.90
2008,09,22,06,51,8.90
2008,09,22,06,52,8.90
2008,09,22,06,53,8.90
2008,09,22,06,54,8.90
2008,09,22,06,55,8.90
2008,09,22,06,56,8.90
2008,09,22,06,57,8.90
2008,09,22,06,58,8.90
2008,09,22,06,59,8.90
2008,09,22,07,00,8.90
2008,09,22,07,01,8.80
2008,09,22,07,02,8.80
2008,09,22,07,03,8.80
2008,09,22,07,04,8.80
2008,09,22,07,05,8.80
2008,09,22,07,06,8.80
2008,09,22,07,07,8.80
2008,09,22,07,08,8.80
2008,09,22,07,09,8.80
2008,09,22,07,10,8.80
2008,09,22,07,11,8.70
2008,09,22,07,12,8.70
2008,09,22,07,13,8.70
2008,09,22,07,14,8.60
2008,09,22,07,15,8.60
2008,09,22,07,16,8.60
2008,09,22,07,17,8.60
2008,09,22,07,18,8.50
2008,09,22,07,19,8.50
2008,09,22,07,20,8.40
2008,09,22,07,21,8.40
2008,09,22,07,22,8.40
2008,09,22,07,23,8.40
2008,09,22,07,24,8.40
2008,09,22,07,25,8.40
2008,09,22,07,26,8.40
2008,09,22,07,27,8.40
2008,09,22,07,28,8.40
2008,09,22,07,29,8.40
2008,09,22,07,30,8.30
2008,09,22,07,31,8.30
2008,09,22,07,32,8.30
2008,09,22,07,33,8.30
2008,09,22,07,34,8.30
2008,09,22,07,35,8.20
2008,09,22,07,36,8.20
2008,09,22,07,37,8.10
2008,09,22,07,38,8.10
2008,09,22,07,39,8.10
2008,09,22,07,40,8.00
2008,09,22,07,41,8.00
2008,09,22,07,42,7.90
2008,09,22,07,43,7.90
2008,09,22,07,44,7.90
2008,09,22,07,45,7.80
2008,09,22,07,46,7.80
2008,09,22,07,47,7.80
2008,09,22,07,48,7.80
2008,09,22,07,49,7.80
2008,09,22,07,50,7.80
2008,09,22,07,51,7.70
2008,09,22,07,52,7.70
2008,09,22,07,53,7.70
2008,09,22,07,54,7.70
2008,09,22,07,55,7.70
2008,09,22,07,56,7.70
2008,09,22,07,57,7.70
2008,09,22,07,58,7.70
2008,09,22,07,59,7.70
2008,09,22,08,00,7.60
2008,09,22,08,01,7.60
2008,09,22,08,02,7.60
2008,09,22,08,03,7.60
2008,09,22,08,04,7.60
2008,09,22,08,05,7.60
2008,09,22,08,06,7.60
2008,09,22,08,07,7.70
2008,09,22,08,08,7.70
2008,09,22,08,09,7.70
2008,09,22,08,10,7.70
2008,09,22,08,11,7.70
2008,09,22,08,12,7.80
2008,09,22,08,13,7.80
2008,09,22,08,14,7.80
2008,09,22,08,15,7.80
2008,09,22,08,16,7.80
2008,09,22,08,17,7.80
2008,09,22,08,18,7.80
2008,09,22,08,19,7.80
2008,09,22,08,20,7.80
2008,09,22,08,21,7.80
2008,09,22,08,22,7.80
2008,09,22,08,23,7.80
2008,09,22,08,24,7.90
2008,09,22,08,25,7.90
2008,09,22,08,26,7.90
2008,09,22,08,27,8.00
2008,09,22,08,28,8.10
2008,09,22,08,29,8.10
2008,09,22,08,30,8.10
2008,09,22,08,31,8.10
2008,09,22,08,32,8.10
2008,09,22,08,33,8.10
2008,09,22,08,34,8.10
2008,09,22,08,35,8.10
2008,09,22,08,36,8.10
2008,09,22,08,37,8.20
2008,09,22,08,38,8.20
2008,09,22,08,39,8.30
2008,09,22,08,40,8.30
2008,09,22,08,41,8.30
2008,09,22,08,42,8.30
2008,09,22,08,43,8.40
2008,09,22,08,44,8.40
2008,09,22,08,45,8.50
2008,09,22,08,46,8.60
2008,09,22,08,47,8.60
2008,09,22,08,48,8.70
2008,09,22,08,49,8.80
2008,09,22,08,50,8.90
2008,09,22,08,51,9.00
2008,09,22,08,52,9.10
2008,09,22,08,53,9.10
2008,09,22,08,54,9.20
2008,09,22,08,55,9.30
2008,09,22,08,56,9.30
2008,09,22,08,57,9.30
2008,09,22,08,58,9.30
2008,09,22,08,59,9.30
2008,09,22,09,00,9.40
2008,09,22,09,01,9.40
2008,09,22,09,02,9.40
2008,09,22,09,03,9.50
2008,09,22,09,04,9.60
2008,09,22,09,05,9.70
2008,09,22,09,06,9.80
2008,09,22,09,07,9.90
2008,09,22,09,08,9.90
2008,09,22,09,09,10.00
2008,09,22,09,10,10.10
2008,09,22,09,11,10.20
2008,09,22,09,12,10.30
2008,09,22,09,13,10.30
2008,09,22,09,14,10.40
2008,09,22,09,15,10.50
2008,09,22,09,16,10.60
2008,09,22,09,17,10.70
2008,09,22,09,18,10.80
2008,09,22,09,19,10.90
2008,09,22,09,20,10.90
2008,09,22,09,21,11.00
2008,09,22,09,22,11.00
2008,09,22,09,23,11.10
2008,09,22,09,24,11.10
2008,09,22,09,25,11.10
2008,09,22,09,26,11.00
2008,09,22,09,27,11.10
2008,09,22,09,28,11.10
2008,09,22,09,29,11.10
2008,09,22,09,30,11.20
2008,09,22,09,31,11.20
2008,09,22,09,32,11.30
2008,09,22,09,33,11.40
2008,09,22,09,34,11.50
2008,09,22,09,35,11.60
2008,09,22,09,36,11.60
2008,09,22,09,37,11.70
2008,09,22,09,38,11.80
2008,09,22,09,39,11.90
2008,09,22,09,40,12.00
2008,09,22,09,41,12.00
2008,09,22,09,42,12.10
2008,09,22,09,43,12.10
2008,09,22,09,44,12.10
2008,09,22,09,45,12.20
2008,09,22,09,46,12.20
2008,09,22,09,47,12.30
2008,09,22,09,48,12.30
2008,09,22,09,49,12.30
2008,09,22,09,50,12.40
2008,09,22,09,51,12.40
2008,09,22,09,52,12.40
2008,09,22,09,53,12.50
2008,09,22,09,54,12.50
2008,09,22,09,55,12.50
2008,09,22,09,56,12.60
2008,09,22,09,57,12.60
2008,09,22,09,58,12.60
2008,09,22,09,59,12.70
2008,09,22,10,00,12.70
2008,09,22,10,01,12.70
2008,09,22,10,02,12.70
2008,09,22,10,03,12.70
2008,09,22,10,04,12.70
2008,09,22,10,05,12.60
2008,09,22,10,06,12.60
2008,09,22,10,07,12.50
2008,09,22,10,08,12.50
2008,09,22,10,09,12.40
2008,09,22,10,10,12.30
2008,09,22,10,11,12.30
2008,09,22,10,12,12.30
2008,09,22,10,13,12.30
2008,09,22,10,14,12.30
2008,09,22,10,15,12.30
2008,09,22,10,16,12.30
2008,09,22,10,17,12.20
2008,09,22,10,18,12.20
2008,09,22,10,19,12.10
2008,09,22,10,20,12.10
2008,09,22,10,21,12.10
2008,09,22,10,22,12.00
2008,09,22,10,23,12.10
2008,09,22,10,24,12.00
2008,09,22,10,25,12.00
2008,09,22,10,26,12.00
2008,09,22,10,27,12.10
2008,09,22,10,28,12.10
2008,09,22,10,29,12.10
2008,09,22,10,30,12.20
2008,09,22,10,31,12.20
2008,09,22,10,32,12.20
2008,09,22,10,33,12.20
2008,09,22,10,34,12.20
2008,09,22,10,35,12.30
2008,09,22,10,36,12.30
2008,09,22,10,37,12.40
2008,09,22,10,38,12.40
2008,09,22,10,39,12.40
2008,09,22,10,40,12.40
2008,09,22,10,41,12.40
2008,09,22,10,42,12.40
2008,09,22,10,43,12.40
2008,09,22,10,44,12.40
2008,09,22,10,45,12.40
2008,09,22,10,46,12.40
2008,09,22,10,47,12.40
2008,09,22,10,48,12.40
2008,09,22,10,49,12.50
2008,09,22,10,50,12.50
2008,09,22,10,51,12.60
2008,09,22,10,52,12.60
2008,09,22,10,53,12.60
2008,09,22,10,54,12.60
2008,09,22,10,55,12.60
2008,09,22,10,56,12.60
2008,09,22,10,57,12.50
2008,09,22,10,58,12.50
2008,09,22,10,59,12.60
2008,09,22,11,00,12.60
2008,09,22,11,01,12.70
2008,09,22,11,02,12.70
2008,09,22,11,03,12.80
2008,09,22,11,04,12.90
2008,09,22,11,05,12.90
2008,09,22,11,06,13.00
2008,09,22,11,07,13.10
2008,09,22,11,08,13.20
2008,09,22,11,09,13.20
2008,09,22,11,10,13.20
2008,09,22,11,11,13.20
2008,09,22,11,12,13.10
2008,09,22,11,13,13.10
2008,09,22,11,14,13.10
2008,09,22,11,15,13.10
2008,09,22,11,16,13.20
2008,09,22,11,17,13.20
2008,09,22,11,18,13.20
2008,09,22,11,19,13.20
2008,09,22,11,20,13.20
2008,09,22,11,21,13.20
2008,09,22,11,22,13.10
2008,09,22,11,23,13.00
2008,09,22,11,24,13.00
2008,09,22,11,25,13.00
2008,09,22,11,26,13.00
2008,09,22,11,27,13.00
2008,09,22,11,28,13.10
2008,09,22,11,29,13.10
2008,09,22,11,30,13.20
2008,09,22,11,31,13.20
2008,09,22,11,32,13.10
2008,09,22,11,33,13.00
2008,09,22,11,34,12.80
2008,09,22,11,35,12.80
2008,09,22,11,36,12.80
2008,09,22,11,37,12.70
2008,09,22,11,38,12.70
2008,09,22,11,39,12.70
2008,09,22,11,40,12.70
2008,09,22,11,41,12.80
2008,09,22,11,42,12.80
2008,09,22,11,43,12.90
2008,09,22,11,44,13.00
2008,09,22,11,45,13.10
2008,09,22,11,46,13.20
2008,09,22,11,47,13.30
2008,09,22,11,48,13.30
2008,09,22,11,49,13.30
2008,09,22,11,50,13.30
2008,09,22,11,51,13.30
2008,09,22,11,52,13.30
2008,09,22,11,53,13.30
2008,09,22,11,54,13.20
2008,09,22,11,55,13.30
2008,09,22,11,56,13.30
2008,09,22,11,57,13.30
2008,09,22,11,58,13.30
2008,09,22,11,59,13.20
2008,09,22,12,00,13.30
2008,09,22,12,01,13.30
2008,09,22,12,02,13.40
2008,09,22,12,03,13.50
2008,09,22,12,04,13.50
2008,09,22,12,05,13.60
2008,09,22,12,06,13.70
2008,09,22,12,07,13.80
2008,09,22,12,08,13.80
2008,09,22,12,09,13.90
2008,09,22,12,10,13.80
2008,09,22,12,11,13.80
2008,09,22,12,12,13.80
2008,09,22,12,13,13.80
2008,09,22,12,14,13.90
2008,09,22,12,15,13.90
2008,09,22,12,16,13.90
2008,09,22,12,17,13.90
2008,09,22,12,18,13.90
2008,09,22,12,19,13.90
2008,09,22,12,20,13.90
2008,09,22,12,21,13.90
2008,09,22,12,22,13.90
2008,09,22,12,23,13.90
2008,09,22,12,24,13.90
2008,09,22,12,25,13.90
2008,09,22,12,26,13.90
2008,09,22,12,27,13.70
2008,09,22,12,28,13.60
2008,09,22,12,29,13.50
2008,09,22,12,30,13.40
2008,09,22,12,31,13.30
2008,09,22,12,32,13.30
2008,09,22,12,33,13.30
2008,09,22,12,34,13.30
2008,09,22,12,35,13.30
2008,09,22,12,36,13.30
2008,09,22,12,37,13.30
2008,09,22,12,38,13.30
2008,09,22,12,39,13.30
2008,09,22,12,40,13.30
2008,09,22,12,41,13.30
2008,09,22,12,42,13.20
2008,09,22,12,43,13.20
2008,09,22,12,44,13.20
2008,09,22,12,45,13.10
2008,09,22,12,46,13.10
2008,09,22,12,47,13.10
2008,09,22,12,48,13.10
2008,09,22,12,49,13.10
2008,09,22,12,50,13.10
2008,09,22,12,51,13.10
2008,09,22,12,52,13.10
2008,09,22,12,53,13.10
2008,09,22,12,54,13.10
2008,09,22,12,55,13.20
2008,09,22,12,56,13.20
2008,09,22,12,57,13.20
2008,09,22,12,58,13.20
2008,09,22,12,59,13.30
2008,09,22,13,00,13.30
2008,09,22,13,01,13.40
2008,09,22,13,02,13.50
2008,09,22,13,03,13.60
2008,09,22,13,04,13.70
2008,09,22,13,05,13.80
2008,09,22,13,06,13.80
2008,09,22,13,07,13.80
2008,09,22,13,08,13.80
2008,09,22,13,09,13.70
2008,09,22,13,10,13.70
2008,09,22,13,11,13.70
2008,09,22,13,12,13.70
2008,09,22,13,13,13.70
2008,09,22,13,14,13.70
2008,09,22,13,15,13.80
2008,09,22,13,16,13.80
2008,09,22,13,17,13.70
2008,09,22,13,18,13.70
2008,09,22,13,19,13.60
2008,09,22,13,20,13.60
2008,09,22,13,21,13.50
2008,09,22,13,22,13.60
2008,09,22,13,23,13.60
2008,09,22,13,24,13.70
2008,09,22,13,25,13.80
2008,09,22,13,26,13.90
2008,09,22,13,27,14.00
2008,09,22,13,28,14.00
2008,09,22,13,29,13.90
2008,09,22,13,30,13.90
2008,09,22,13,31,13.90
2008,09,22,13,32,13.90
2008,09,22,13,33,14.00
2008,09,22,13,34,14.10
2008,09,22,13,35,14.10
2008,09,22,13,36,14.10
2008,09,22,13,37,14.20
2008,09,22,13,38,14.20
2008,09,22,13,39,14.20
2008,09,22,13,40,14.10
2008,09,22,13,41,14.00
2008,09,22,13,42,13.80
2008,09,22,13,43,13.70
2008,09,22,13,44,13.60
2008,09,22,13,45,13.50
2008,09,22,13,46,13.50
2008,09,22,13,47,13.50
2008,09,22,13,48,13.60
2008,09,22,13,49,13.60
2008,09,22,13,50,13.60
2008,09,22,13,51,13.60
2008,09,22,13,52,13.70
2008,09,22,13,53,13.70
2008,09,22,13,54,13.70
2008,09,22,13,55,13.70
2008,09,22,13,56,13.70
2008,09,22,13,57,13.70
2008,09,22,13,58,13.70
2008,09,22,13,59,13.70
2008,09,22,14,00,13.70
2008,09,22,14,01,13.70
2008,09,22,14,02,13.70
2008,09,22,14,03,13.70
2008,09,22,14,04,13.70
2008,09,22,14,05,13.70
2008,09,22,14,06,13.70
2008,09,22,14,07,13.70
2008,09,22,14,08,13.70
2008,09,22,14,09,13.70
2008,09,22,14,10,13.80
2008,09,22,14,11,13.80
2008,09,22,14,12,13.80
2008,09,22,14,13,13.90
2008,09,22,14,14,14.00
2008,09,22,14,15,13.90
2008,09,22,14,16,13.90
2008,09,22,14,17,13.80
2008,09,22,14,18,13.70
2008,09,22,14,19,13.70
2008,09,22,14,20,13.60
2008,09,22,14,21,13.60
2008,09,22,14,22,13.60
2008,09,22,14,23,13.60
2008,09,22,14,24,13.70
2008,09,22,14,25,13.70
2008,09,22,14,26,13.70
2008,09,22,14,27,13.70
2008,09,22,14,28,13.60
2008,09,22,14,29,13.60
2008,09,22,14,30,13.60
2008,09,22,14,31,13.50
2008,09,22,14,32,13.40
2008,09,22,14,33,13.30
2008,09,22,14,34,13.20
2008,09,22,14,35,13.20
2008,09,22,14,36,13.10
2008,09,22,14,37,13.10
2008,09,22,14,38,13.10
2008,09,22,14,39,13.00
2008,09,22,14,40,13.00
2008,09,22,14,41,13.00
2008,09,22,14,42,13.00
2008,09,22,14,43,12.90
2008,09,22,14,44,12.90
2008,09,22,14,45,12.90
2008,09,22,14,46,12.80
2008,09,22,14,47,12.80
2008,09,22,14,48,12.70
2008,09,22,14,49,12.70
2008,09,22,14,50,12.80
2008,09,22,14,51,12.90
2008,09,22,14,52,12.90
2008,09,22,14,53,12.90
2008,09,22,14,54,12.90
2008,09,22,14,55,13.00
2008,09,22,14,56,13.00
2008,09,22,14,57,13.00
2008,09,22,14,58,13.10
2008,09,22,14,59,13.10
2008,09,22,15,00,13.10
2008,09,22,15,01,13.20
2008,09,22,15,02,13.20
2008,09,22,15,03,13.20
2008,09,22,15,04,13.20
2008,09,22,15,05,13.20
2008,09,22,15,06,13.10
2008,09,22,15,07,13.10
2008,09,22,15,08,13.10
2008,09,22,15,09,13.10
2008,09,22,15,10,13.10
2008,09,22,15,11,13.10
2008,09,22,15,12,13.00
2008,09,22,15,13,13.00
2008,09,22,15,14,12.90
2008,09,22,15,15,12.90
2008,09,22,15,16,12.90
2008,09,22,15,17,12.90
2008,09,22,15,18,12.80
2008,09,22,15,19,12.80
2008,09,22,15,20,12.70
2008,09,22,15,21,12.60
2008,09,22,15,22,12.60
2008,09,22,15,23,12.60
2008,09,22,15,24,12.60
2008,09,22,15,25,12.60
2008,09,22,15,26,12.70
2008,09,22,15,27,12.70
2008,09,22,15,28,12.80
2008,09,22,15,29,12.80
2008,09,22,15,30,12.80
2008,09,22,15,31,12.70
2008,09,22,15,32,12.70
2008,09,22,15,33,12.70
2008,09,22,15,34,12.70
2008,09,22,15,35,12.80
2008,09,22,15,36,12.80
2008,09,22,15,37,12.80
2008,09,22,15,38,12.90
2008,09,22,15,39,12.90
2008,09,22,15,40,13.00
2008,09,22,15,41,13.10
2008,09,22,15,42,13.10
2008,09,22,15,43,13.20
2008,09,22,15,44,13.20
2008,09,22,15,45,13.10
2008,09,22,15,46,13.10
2008,09,22,15,47,13.20
2008,09,22,15,48,13.20
2008,09,22,15,49,13.20
2008,09,22,15,50,13.20
2008,09,22,15,51,13.20
2008,09,22,15,52,13.30
2008,09,22,15,53,13.30
2008,09,22,15,54,13.30
2008,09,22,15,55,13.30
2008,09,22,15,56,13.30
2008,09,22,15,57,13.30
2008,09,22,15,58,13.30
2008,09,22,15,59,13.30
2008,09,22,16,00,13.30
2008,09,22,16,01,13.30
2008,09,22,16,02,13.20
2008,09,22,16,03,13.10
2008,09,22,16,04,13.10
2008,09,22,16,05,13.10
2008,09,22,16,06,13.00
2008,09,22,16,07,13.10
2008,09,22,16,08,13.10
2008,09,22,16,09,13.10
2008,09,22,16,10,13.10
2008,09,22,16,11,13.00
2008,09,22,16,12,13.00
2008,09,22,16,13,13.00
2008,09,22,16,14,13.00
2008,09,22,16,15,13.00
2008,09,22,16,16,13.00
2008,09,22,16,17,13.00
2008,09,22,16,18,13.00
2008,09,22,16,19,12.90
2008,09,22,16,20,12.90
2008,09,22,16,21,13.00
2008,09,22,16,22,13.00
2008,09,22,16,23,13.10
2008,09,22,16,24,13.20
2008,09,22,16,25,13.30
2008,09,22,16,26,13.40
2008,09,22,16,27,13.50
2008,09,22,16,28,13.60
2008,09,22,16,29,13.60
2008,09,22,16,30,13.70
2008,09,22,16,31,13.80
2008,09,22,16,32,13.80
2008,09,22,16,33,13.80
2008,09,22,16,34,13.80
2008,09,22,16,35,13.70
2008,09,22,16,36,13.70
2008,09,22,16,37,13.60
2008,09,22,16,38,13.60
2008,09,22,16,39,13.50
2008,09,22,16,40,13.50
2008,09,22,16,41,13.50
2008,09,22,16,42,13.50
2008,09,22,16,43,13.50
2008,09,22,16,44,13.50
2008,09,22,16,45,13.60
2008,09,22,16,46,13.60
2008,09,22,16,47,13.60
2008,09,22,16,48,13.60
2008,09,22,16,49,13.60
2008,09,22,16,50,13.60
2008,09,22,16,51,13.60
2008,09,22,16,52,13.60
2008,09,22,16,53,13.50
2008,09,22,16,54,13.50
2008,09,22,16,55,13.50
2008,09,22,16,56,13.40
2008,09,22,16,57,13.40
2008,09,22,16,58,13.40
2008,09,22,16,59,13.30
2008,09,22,17,00,13.30
2008,09,22,17,01,13.30
2008,09,22,17,02,13.40
2008,09,22,17,03,13.40
2008,09,22,17,04,13.50
2008,09,22,17,05,13.60
2008,09,22,17,06,13.60
2008,09,22,17,07,13.60
2008,09,22,17,08,13.50
2008,09,22,17,09,13.50
2008,09,22,17,10,13.60
2008,09,22,17,11,13.60
2008,09,22,17,12,13.60
2008,09,22,17,13,13.60
2008,09,22,17,14,13.60
2008,09,22,17,15,13.60
2008,09,22,17,16,13.50
2008,09,22,17,17,13.40
2008,09,22,17,18,13.30
2008,09,22,17,19,13.20
2008,09,22,17,20,13.20
2008,09,22,17,21,13.10
2008,09,22,17,22,12.90
2008,09,22,17,23,12.90
2008,09,22,17,24,12.90
2008,09,22,17,25,12.90
2008,09,22,17,26,12.90
2008,09,22,17,27,12.80
2008,09,22,17,28,12.80
2008,09,22,17,29,12.80
2008,09,22,17,30,12.80
2008,09,22,17,31,12.80
2008,09,22,17,32,12.90
2008,09,22,17,33,12.90
2008,09,22,17,34,13.00
2008,09,22,17,35,13.00
2008,09,22,17,36,13.00
2008,09,22,17,37,13.00
2008,09,22,17,38,13.00
2008,09,22,17,39,13.00
2008,09,22,17,40,13.10
2008,09,22,17,41,13.10
2008,09,22,17,42,13.00
2008,09,22,17,43,13.00
2008,09,22,17,44,12.90
2008,09,22,17,45,12.90
2008,09,22,17,46,12.90
2008,09,22,17,47,12.90
2008,09,22,17,48,12.80
2008,09,22,17,49,12.80
2008,09,22,17,50,12.80
2008,09,22,17,51,12.70
2008,09,22,17,52,12.60
2008,09,22,17,53,12.50
2008,09,22,17,54,12.40
2008,09,22,17,55,12.30
2008,09,22,17,56,12.30
2008,09,22,17,57,12.20
2008,09,22,17,58,12.20
2008,09,22,17,59,12.10
2008,09,22,18,00,12.10
2008,09,22,18,01,12.00
2008,09,22,18,02,11.90
2008,09,22,18,03,11.90
2008,09,22,18,04,11.90
2008,09,22,18,05,11.90
2008,09,22,18,06,11.90
2008,09,22,18,07,11.90
2008,09,22,18,08,11.90
2008,09,22,18,09,11.90
2008,09,22,18,10,11.90
2008,09,22,18,11,11.90
2008,09,22,18,12,11.90
2008,09,22,18,13,11.90
2008,09,22,18,14,11.90
2008,09,22,18,15,11.90
2008,09,22,18,16,11.90
2008,09,22,18,17,11.90
2008,09,22,18,18,11.90
2008,09,22,18,19,11.90